TimeEST,TemperatureF,Dew PointF,Humidity,Sea Level PressureIn,VisibilityMPH,Wind Direction,Wind SpeedMPH,Gust SpeedMPH,PrecipitationIn,Events,Conditions,WindDirDegrees,DateUTC
12:15 AM,62.6,57.2,82,29.96,9.0,SSW,9.2,-,N/A,,Partly Cloudy,210,2013-01-02 05:15:00
12:35 AM,62.6,57.2,82,29.95,10.0,SSW,10.4,17.3,N/A,,Mostly Cloudy,210,2013-01-02 05:35:00
12:55 AM,62.6,57.2,82,29.95,10.0,SW,9.2,-,N/A,,Overcast,220,2013-01-02 05:55:00
1:15 AM,64.4,55.4,73,29.94,10.0,SW,12.7,17.3,N/A,,Overcast,220,2013-01-02 06:15:00
1:35 AM,62.6,55.4,77,29.95,10.0,SW,9.2,18.4,N/A,,Mostly Cloudy,230,2013-01-02 06:35:00
1:55 AM,62.6,55.4,77,29.94,10.0,SSW,9.2,-,N/A,,Mostly Cloudy,210,2013-01-02 06:55:00
2:15 AM,64.4,55.4,73,29.94,10.0,SSW,8.1,16.1,N/A,,Overcast,210,2013-01-02 07:15:00
2:35 AM,64.4,55.4,73,29.94,10.0,SW,10.4,-,N/A,,Overcast,230,2013-01-02 07:35:00
2:55 AM,64.4,55.4,73,29.94,8.0,SW,8.1,-,N/A,Rain,Light Rain,220,2013-01-02 07:55:00
3:35 AM,64.4,55.4,73,29.93,10.0,SW,6.9,-,N/A,,Overcast,220,2013-01-02 08:35:00
3:55 AM,64.4,55.4,73,29.93,10.0,SSW,9.2,-,N/A,,Overcast,210,2013-01-02 08:55:00
4:15 AM,62.6,55.4,77,29.93,10.0,SSW,8.1,-,N/A,,Mostly Cloudy,210,2013-01-02 09:15:00
4:35 AM,62.6,55.4,77,29.92,10.0,SSW,6.9,-,N/A,,Mostly Cloudy,210,2013-01-02 09:35:00
4:55 AM,60.8,55.4,82,29.92,10.0,SSW,6.9,-,N/A,,Partly Cloudy,210,2013-01-02 09:55:00
5:15 AM,60.8,55.4,82,29.92,10.0,SW,6.9,-,N/A,,Clear,220,2013-01-02 10:15:00
5:35 AM,60.8,55.4,82,29.93,10.0,SW,4.6,-,N/A,,Scattered Clouds,220,2013-01-02 10:35:00
5:55 AM,60.8,55.4,82,29.93,9.0,SSW,5.8,-,N/A,,Mostly Cloudy,210,2013-01-02 10:55:00
6:15 AM,60.8,55.4,82,29.92,9.0,SSW,6.9,-,N/A,,Scattered Clouds,200,2013-01-02 11:15:00
6:35 AM,60.8,55.4,82,29.92,9.0,SW,6.9,-,N/A,,Scattered Clouds,220,2013-01-02 11:35:00
7:15 AM,60.8,55.4,82,29.94,8.0,WSW,5.8,-,N/A,,Partly Cloudy,240,2013-01-02 12:15:00
7:35 AM,60.8,55.4,82,29.95,7.0,WSW,5.8,-,N/A,,Mostly Cloudy,250,2013-01-02 12:35:00
7:55 AM,60.8,57.2,88,29.95,7.0,SW,5.8,-,N/A,,Overcast,230,2013-01-02 12:55:00
8:15 AM,60.8,57.2,88,29.95,7.0,SW,6.9,-,N/A,,Overcast,230,2013-01-02 13:15:00
8:35 AM,60.8,57.2,88,29.96,7.0,WSW,5.8,-,N/A,,Overcast,240,2013-01-02 13:35:00
8:55 AM,60.8,57.2,88,29.97,7.0,WSW,6.9,-,N/A,,Overcast,250,2013-01-02 13:55:00
9:15 AM,60.8,57.2,88,29.98,7.0,West,5.8,-,N/A,,Overcast,280,2013-01-02 14:15:00
9:35 AM,60.8,57.2,88,29.99,6.0,WNW,4.6,-,N/A,,Overcast,290,2013-01-02 14:35:00
10:15 AM,60.8,57.2,88,30.00,7.0,NNW,8.1,-,N/A,,Overcast,330,2013-01-02 15:15:00
10:35 AM,60.8,57.2,88,30.01,5.0,NNW,9.2,-,N/A,,Overcast,330,2013-01-02 15:35:00
10:55 AM,60.8,57.2,88,30.01,7.0,NNW,8.1,-,N/A,,Overcast,330,2013-01-02 15:55:00
11:15 AM,60.8,57.2,88,30.02,10.0,NNW,6.9,-,N/A,,Overcast,330,2013-01-02 16:15:00
11:35 AM,60.8,57.2,88,30.01,10.0,NNW,8.1,-,N/A,,Overcast,330,2013-01-02 16:35:00
11:55 AM,60.8,57.2,88,30.01,8.0,NNW,8.1,-,N/A,,Overcast,340,2013-01-02 16:55:00
12:15 PM,60.8,55.4,82,30.01,6.0,NNW,9.2,-,N/A,,Overcast,340,2013-01-02 17:15:00
12:35 PM,59.0,55.4,88,30.01,10.0,North,5.8,-,N/A,,Overcast,350,2013-01-02 17:35:00
12:55 PM,59.0,55.4,88,30.00,8.0,North,6.9,-,N/A,,Overcast,10,2013-01-02 17:55:00
1:15 PM,59.0,55.4,88,30.00,10.0,North,8.1,-,N/A,,Overcast,360,2013-01-02 18:15:00
1:35 PM,57.2,55.4,94,30.00,3.0,North,4.6,-,N/A,,Overcast,360,2013-01-02 18:35:00
1:55 PM,57.2,55.4,94,30.00,4.0,NNE,3.5,-,N/A,,Overcast,20,2013-01-02 18:55:00
2:15 PM,57.2,55.4,94,30.00,10.0,NNE,5.8,-,N/A,,Overcast,30,2013-01-02 19:15:00
2:35 PM,57.2,55.4,94,30.00,10.0,NNE,4.6,-,N/A,,Overcast,20,2013-01-02 19:35:00
2:55 PM,57.2,55.4,94,30.00,10.0,Calm,Calm,-,N/A,,Overcast,0,2013-01-02 19:55:00
3:15 PM,57.2,55.4,94,30.01,10.0,NNE,3.5,-,N/A,,Overcast,30,2013-01-02 20:15:00
3:35 PM,57.2,53.6,88,30.03,10.0,Calm,Calm,-,N/A,,Overcast,0,2013-01-02 20:35:00
3:55 PM,57.2,53.6,88,30.04,10.0,Calm,Calm,-,N/A,,Overcast,0,2013-01-02 20:55:00
4:15 PM,55.4,53.6,94,30.04,10.0,Calm,Calm,-,N/A,,Overcast,0,2013-01-02 21:15:00
4:35 PM,55.4,53.6,94,30.05,10.0,Calm,Calm,-,N/A,,Overcast,0,2013-01-02 21:35:00
4:55 PM,55.4,53.6,94,30.05,10.0,Calm,Calm,-,N/A,,Overcast,0,2013-01-02 21:55:00
5:15 PM,55.4,53.6,94,30.05,10.0,Calm,Calm,-,N/A,,Overcast,0,2013-01-02 22:15:00
5:35 PM,55.4,53.6,94,30.06,10.0,Calm,Calm,-,N/A,,Overcast,0,2013-01-02 22:35:00
5:55 PM,55.4,51.8,88,30.07,10.0,ENE,3.5,-,N/A,,Overcast,70,2013-01-02 22:55:00
6:15 PM,55.4,51.8,88,30.08,10.0,Calm,Calm,-,N/A,,Overcast,0,2013-01-02 23:15:00
6:35 PM,55.4,50.0,82,30.09,10.0,ENE,3.5,-,N/A,,Overcast,70,2013-01-02 23:35:00
6:55 PM,53.6,50.0,88,30.09,10.0,NE,3.5,-,N/A,,Overcast,50,2013-01-02 23:55:00
7:15 PM,53.6,50.0,88,30.10,10.0,Calm,Calm,-,N/A,,Overcast,0,2013-01-03 00:15:00
7:35 PM,53.6,48.2,82,30.11,10.0,Calm,Calm,-,N/A,,Overcast,0,2013-01-03 00:35:00
7:55 PM,53.6,48.2,82,30.11,10.0,Calm,Calm,-,N/A,,Overcast,0,2013-01-03 00:55:00
8:15 PM,53.6,48.2,82,30.10,10.0,ENE,3.5,-,N/A,,Overcast,60,2013-01-03 01:15:00
8:35 PM,53.6,48.2,82,30.11,10.0,ENE,4.6,-,N/A,,Overcast,60,2013-01-03 01:35:00
8:55 PM,53.6,48.2,82,30.10,10.0,Calm,Calm,-,N/A,,Overcast,0,2013-01-03 01:55:00
9:15 PM,53.6,48.2,82,30.12,10.0,NNE,3.5,-,N/A,,Overcast,30,2013-01-03 02:15:00
9:35 PM,53.6,48.2,82,30.12,10.0,North,3.5,-,N/A,,Overcast,10,2013-01-03 02:35:00
9:55 PM,53.6,50.0,88,30.13,10.0,Calm,Calm,-,N/A,,Overcast,0,2013-01-03 02:55:00
10:15 PM,53.6,50.0,88,30.13,10.0,Calm,Calm,-,N/A,,Overcast,0,2013-01-03 03:15:00
10:35 PM,53.6,48.2,82,30.14,10.0,ENE,4.6,-,N/A,,Overcast,60,2013-01-03 03:35:00
10:55 PM,53.6,48.2,82,30.14,10.0,NNE,3.5,-,N/A,,Overcast,30,2013-01-03 03:55:00
11:15 PM,53.6,48.2,82,30.13,10.0,Calm,Calm,-,N/A,,Overcast,0,2013-01-03 04:15:00
11:35 PM,53.6,48.2,82,30.14,10.0,Calm,Calm,-,N/A,,Overcast,0,2013-01-03 04:35:00
11:55 PM,53.6,48.2,82,30.13,10.0,NE,3.5,-,N/A,,Overcast,50,2013-01-03 04:55:00